Weather History for Lewisburg, WV

Change the Weather History Date:

Wednesday, February 27, 2013

  Actual Average Record
Temperature  
Mean Temperature 32 °F 34 °F  
Max Temperature 35 °F 46 °F 70 °F (1996)
Min Temperature 30 °F 23 °F 9 °F (1994)
Degree Days  
Heating Degree Days 32    
Month to date heating degree days  
Since 1 July heating degree days  
Cooling Degree Days 0    
Month to date cooling degree days  
Year to date cooling degree days  
Moisture  
Dew Point 29 °F    
Average Humidity 83    
Maximum Humidity 100    
Minimum Humidity 65    
Precipitation  
Precipitation 0.00 in 0.11 in 1.10 in (1955)
Month to date precipitation 2.78  
Year to date precipitation 5.93  
Snow  
Snow 0.00 in - - ()
Month to date snowfall  
Since 1 July snowfall  
Snow Depth -    
Sea Level Pressure  
Sea Level Pressure 29.68 in    
Wind  
Wind Speed 5 mph (WSW)    
Max Wind Speed 15 mph    
Max Gust Speed 20 mph    
Visibility 9 miles    
Events Rain , Snow    
T = Trace of Precipitation, MM = Missing Value Source: NWS Daily Summary

Daily Weather History Graph

Daily Weather History Graph

Search for Another Location

Airport:

Trip Planner

Search our weather history database for the weather conditions in past years. The results will help you decide how hot, cold, wet, or windy it might be!

Date:

Astronomy

Feb. 27, 2013 Rise Set
Actual Time 6:55 AM EST 6:13 PM EST
Civil Twilight 6:29 AM EST 6:39 PM EST
Nautical Twilight 5:58 AM EST 7:10 PM EST
Astronomical Twilight 5:28 AM EST 7:40 PM EST
Moon 8:29 PM EST (2/27) 7:32 AM EST (2/27)
Length of Visible Light 12h 10m
Length of Day
11h 17m
Waning Gibbous, 96% of the Moon is Illuminated
Feb 27
Waning Gibbous
Mar 4
Last Quarter
Mar 11
New
Mar 19
First Quarter
Mar 27
Full

Hourly Weather History & Observations

Time (EST) Temp. Windchill Dew Point Humidity Pressure Visibility Wind Dir Wind Speed Gust Speed Precip Events Conditions
12:35 AM 33.8 °F - 32.0 °F 93% 29.59 in 5.0 mi Calm Calm - N/A   Overcast
12:55 AM 33.8 °F - 32.0 °F 93% 29.58 in 5.0 mi Calm Calm - N/A   Overcast
1:15 AM 33.8 °F - 32.0 °F 93% 29.58 in 5.0 mi Calm Calm - N/A   Overcast
1:35 AM 33.8 °F - 32.0 °F 93% 29.59 in 3.0 mi Calm Calm - N/A   Overcast
1:55 AM 33.8 °F - 32.0 °F 93% 29.59 in 2.0 mi Calm Calm - N/A   Overcast
2:15 AM 33.8 °F - 32.0 °F 93% 29.59 in 1.8 mi Calm Calm - N/A   Overcast
2:35 AM 33.8 °F - 32.0 °F 93% 29.59 in 1.2 mi Calm Calm - N/A   Overcast
2:55 AM 33.8 °F 30.8 °F 32.0 °F 93% 29.59 in 2.0 mi WSW 3.5 mph - N/A   Overcast
3:15 AM 33.8 °F 30.8 °F 32.0 °F 93% 29.58 in 7.0 mi West 3.5 mph - N/A   Overcast
3:35 AM 33.8 °F - 33.8 °F 100% 29.58 in 10.0 mi Calm Calm - N/A   Overcast
3:55 AM 33.8 °F - 32.0 °F 93% 29.58 in 10.0 mi Calm Calm - N/A   Overcast
4:35 AM 33.8 °F 29.6 °F 32.0 °F 93% 29.59 in 10.0 mi West 4.6 mph - N/A   Overcast
4:55 AM 33.8 °F 27.7 °F 32.0 °F 93% 29.60 in 10.0 mi West 6.9 mph - N/A   Light Drizzle
5:55 AM 33.8 °F 27.7 °F 30.2 °F 87% 29.63 in 10.0 mi West 6.9 mph - N/A   Overcast
6:15 AM 33.8 °F 29.6 °F 30.2 °F 87% 29.63 in 10.0 mi West 4.6 mph 9.2 mph N/A   Overcast
6:35 AM 33.8 °F 27.0 °F 30.2 °F 87% 29.64 in 10.0 mi SW 8.1 mph - N/A   Overcast
6:55 AM 33.8 °F 28.6 °F 30.2 °F 87% 29.65 in 10.0 mi WSW 5.8 mph - N/A   Overcast
7:15 AM 32.0 °F 26.4 °F 30.2 °F 93% 29.66 in 10.0 mi NW 5.8 mph - N/A   Overcast
7:35 AM 32.0 °F 28.7 °F 30.2 °F 93% 29.67 in 10.0 mi West 3.5 mph - N/A   Overcast
7:55 AM 33.8 °F 27.0 °F 30.2 °F 87% 29.68 in 10.0 mi West 8.1 mph - N/A   Overcast
8:15 AM 33.8 °F 29.6 °F 28.4 °F 81% 29.69 in 10.0 mi WNW 4.6 mph - N/A   Overcast
8:35 AM 32.0 °F 25.6 °F 30.2 °F 93% 29.69 in 7.0 mi West 6.9 mph - N/A Rain Light Rain
8:55 AM 32.0 °F 26.4 °F 30.2 °F 93% 29.70 in 10.0 mi West 5.8 mph - N/A   Overcast
9:15 AM 32.0 °F 26.4 °F 30.2 °F 93% 29.70 in 10.0 mi West 5.8 mph - N/A   Mostly Cloudy
9:35 AM 33.8 °F 25.8 °F 30.2 °F 87% 29.70 in 10.0 mi West 10.4 mph - N/A   Mostly Cloudy
9:55 AM 33.8 °F 27.0 °F 30.2 °F 87% 29.71 in 10.0 mi WSW 8.1 mph - N/A   Overcast
10:15 AM 33.8 °F 25.3 °F 30.2 °F 87% 29.72 in 10.0 mi WSW 11.5 mph - N/A   Overcast
10:35 AM 33.8 °F 26.4 °F 30.2 °F 87% 29.72 in 10.0 mi WSW 9.2 mph - N/A   Overcast
10:55 AM 33.8 °F 25.8 °F 28.4 °F 81% 29.72 in 7.0 mi West 10.4 mph 17.3 mph N/A   Overcast
11:15 AM 33.8 °F 25.8 °F 28.4 °F 81% 29.72 in 10.0 mi WSW 10.4 mph - N/A   Overcast
11:35 AM 35.6 °F 27.5 °F 28.4 °F 75% 29.72 in 10.0 mi WSW 11.5 mph 18.4 mph N/A   Overcast
11:55 AM 33.8 °F 24.3 °F 28.4 °F 81% 29.72 in 10.0 mi WSW 13.8 mph 19.6 mph N/A   Overcast
12:15 PM 35.6 °F 28.6 °F 28.4 °F 75% 29.72 in 10.0 mi WNW 9.2 mph 16.1 mph N/A   Overcast
12:35 PM 33.8 °F 28.6 °F 30.2 °F 87% 29.72 in 10.0 mi WNW 5.8 mph - N/A   Overcast
12:55 PM 33.8 °F 29.6 °F 28.4 °F 81% 29.71 in 10.0 mi WSW 4.6 mph - N/A   Overcast
1:15 PM 33.8 °F 27.0 °F 28.4 °F 81% 29.71 in 10.0 mi West 8.1 mph - N/A   Overcast
1:35 PM 33.8 °F 26.4 °F 26.6 °F 75% 29.71 in 10.0 mi WSW 9.2 mph - N/A   Overcast
1:55 PM 35.6 °F 27.1 °F 26.6 °F 70% 29.70 in 10.0 mi WSW 12.7 mph - N/A   Overcast
2:15 PM 35.6 °F 27.5 °F 26.6 °F 70% 29.70 in 10.0 mi West 11.5 mph 18.4 mph N/A   Overcast
2:35 PM 35.6 °F 28.6 °F 26.6 °F 70% 29.70 in 10.0 mi WSW 9.2 mph - N/A   Overcast
2:55 PM 35.6 °F 27.5 °F 26.6 °F 70% 29.68 in 10.0 mi SW 11.5 mph - N/A   Overcast
3:15 PM 35.6 °F 28.0 °F 24.8 °F 65% 29.68 in 10.0 mi SW 10.4 mph 19.6 mph N/A   Overcast
3:35 PM 35.6 °F 28.0 °F 26.6 °F 70% 29.70 in 10.0 mi WSW 10.4 mph - N/A   Overcast
3:55 PM 35.6 °F 27.1 °F 26.6 °F 70% 29.70 in 10.0 mi SW 12.7 mph 16.1 mph N/A   Overcast
4:15 PM 35.6 °F 28.6 °F 26.6 °F 70% 29.69 in 10.0 mi SW 9.2 mph - N/A   Overcast
4:35 PM 35.6 °F 27.5 °F 26.6 °F 70% 29.69 in 10.0 mi SW 11.5 mph - N/A   Overcast
4:55 PM 35.6 °F 27.5 °F 26.6 °F 70% 29.69 in 10.0 mi SW 11.5 mph - N/A   Overcast
5:15 PM 35.6 °F 28.6 °F 26.6 °F 70% 29.69 in 10.0 mi SW 9.2 mph - N/A   Overcast
5:35 PM 35.6 °F 29.9 °F 26.6 °F 70% 29.70 in 10.0 mi SW 6.9 mph - N/A   Overcast
5:55 PM 35.6 °F 30.7 °F 26.6 °F 70% 29.70 in 10.0 mi SW 5.8 mph - N/A   Overcast
6:15 PM 35.6 °F 29.2 °F 26.6 °F 70% 29.71 in 10.0 mi SW 8.1 mph - N/A   Overcast
6:35 PM 35.6 °F 28.0 °F 26.6 °F 70% 29.72 in 10.0 mi WSW 10.4 mph - N/A   Overcast
6:55 PM 35.6 °F 27.5 °F 26.6 °F 70% 29.72 in 10.0 mi WSW 11.5 mph - N/A   Overcast
7:15 PM 33.8 °F 26.4 °F 26.6 °F 75% 29.72 in 10.0 mi SW 9.2 mph 16.1 mph N/A   Overcast
7:35 PM 33.8 °F 23.9 °F 26.6 °F 75% 29.72 in 10.0 mi WSW 15.0 mph 18.4 mph N/A   Overcast
7:55 PM 33.8 °F 26.4 °F 26.6 °F 75% 29.71 in 10.0 mi WSW 9.2 mph - N/A   Overcast
8:15 PM 33.8 °F 25.3 °F 28.4 °F 81% 29.72 in 10.0 mi WSW 11.5 mph - N/A   Overcast
8:35 PM 32.0 °F 24.2 °F 28.4 °F 87% 29.72 in 10.0 mi WSW 9.2 mph - N/A   Overcast
9:15 PM 32.0 °F 23.6 °F 28.4 °F 87% 29.72 in 10.0 mi WSW 10.4 mph - N/A   Overcast
9:35 PM 32.0 °F 23.6 °F 28.4 °F 87% 29.72 in 10.0 mi WSW 10.4 mph - N/A   Overcast
9:55 PM 32.0 °F 23.6 °F 28.4 °F 87% 29.71 in 10.0 mi WSW 10.4 mph - N/A   Overcast
10:15 PM 32.0 °F 24.2 °F 28.4 °F 87% 29.71 in 10.0 mi WSW 9.2 mph - N/A   Overcast
10:35 PM 32.0 °F 24.2 °F 28.4 °F 87% 29.71 in 5.0 mi West 9.2 mph 17.3 mph N/A Snow Light Snow
10:55 PM 32.0 °F 25.6 °F 28.4 °F 87% 29.70 in 7.0 mi WSW 6.9 mph - N/A   Overcast
11:15 PM 32.0 °F 23.6 °F 28.4 °F 87% 29.71 in 5.0 mi West 10.4 mph - N/A Snow Light Snow
11:35 PM 30.2 °F 23.4 °F 28.4 °F 93% 29.70 in 4.0 mi West 6.9 mph - N/A Snow Light Snow
11:55 PM 30.2 °F 21.9 °F 28.4 °F 93% 29.69 in 10.0 mi West 9.2 mph - N/A   Overcast